When you browse on this site, cookies collect data to enhance your experience and personalize the content and advertising you see.
Visit our Privacy Policy to learn more. By continuing to use the site, you agree to this use of cookies and data.
  • In Hungary
  • List of Countries
  • For 7 days
  • Water Temperature
  • Weather Map
  • News
  • Weather Widgets
  • user-avatar
    Login

    Hourly Weather Lebedevka

    Today, 16 October, Wednesday

    Time Temperature Precipitation Wind Pressure Humidity
    00:00 +12°C° 0 mm 4 mps 759 mmHg 83%
    01:00 +11°C° 0 mm 4 mps 760 mmHg 82%
    02:00 +10°C° 0 mm 4 mps 760 mmHg 81%
    03:00 +8°C° 0 mm 4 mps 761 mmHg 83%
    04:00 +9°C° 0 mm 3 mps 761 mmHg 82%
    05:00 +8°C° 0 mm 3 mps 762 mmHg 82%
    06:00 +8°C° 0 mm 3 mps 762 mmHg 81%
    07:00 +7°C° 0 mm 4 mps 763 mmHg 75%
    08:00 +8°C° 0 mm 4 mps 763 mmHg 70%
    09:00 +8°C° 0 mm 5 mps 764 mmHg 64%
    10:00 +10°C° 0 mm 4 mps 764 mmHg 59%
    11:00 +11°C° 0 mm 4 mps 764 mmHg 54%
    12:00 +11°C° 0 mm 4 mps 765 mmHg 49%
    13:00 +11°C° 0 mm 4 mps 765 mmHg 47%
    14:00 +11°C° 0 mm 4 mps 765 mmHg 45%
    15:00 +11°C° 0 mm 4 mps 765 mmHg 44%
    16:00 +10°C° 0 mm 3 mps 766 mmHg 47%
    17:00 +9°C° 0 mm 3 mps 766 mmHg 51%
    18:00 +7°C° 0 mm 3 mps 766 mmHg 55%
    19:00 +7°C° 0 mm 3 mps 766 mmHg 56%
    20:00 +6°C° 0 mm 2 mps 767 mmHg 57%
    21:00 +6°C° 0 mm 2 mps 767 mmHg 58%
    22:00 +5°C° 0 mm 2 mps 767 mmHg 60%
    23:00 +5°C° 0 mm 2 mps 767 mmHg 61%

    Tomorrow, 17 October, Thursday

    Time Temperature Precipitation Wind Pressure Humidity
    00:00 +5°C° 0 mm 2 mps 767 mmHg 63%
    01:00 +5°C° 0 mm 2 mps 767 mmHg 64%
    02:00 +4°C° 0 mm 2 mps 768 mmHg 66%
    03:00 +4°C° 0 mm 2 mps 768 mmHg 67%
    04:00 +4°C° 0 mm 2 mps 768 mmHg 68%
    05:00 +4°C° 0 mm 2 mps 767 mmHg 70%
    06:00 +3°C° 0 mm 3 mps 767 mmHg 71%
    07:00 +4°C° 0 mm 3 mps 767 mmHg 65%
    08:00 +5°C° 0 mm 3 mps 767 mmHg 60%
    09:00 +8°C° 0 mm 3 mps 767 mmHg 55%
    10:00 +9°C° 0 mm 3 mps 767 mmHg 49%
    11:00 +10°C° 0 mm 4 mps 767 mmHg 44%
    12:00 +12°C° 0 mm 4 mps 767 mmHg 39%
    13:00 +12°C° 0 mm 4 mps 766 mmHg 38%
    14:00 +12°C° 0 mm 4 mps 766 mmHg 37%
    15:00 +13°C° 0 mm 4 mps 765 mmHg 36%
    16:00 +11°C° 0 mm 4 mps 765 mmHg 40%
    17:00 +10°C° 0 mm 4 mps 765 mmHg 43%
    18:00 +9°C° 0 mm 3 mps 764 mmHg 47%
    19:00 +9°C° 0 mm 3 mps 764 mmHg 48%
    20:00 +8°C° 0 mm 3 mps 764 mmHg 49%
    21:00 +8°C° 0 mm 3 mps 764 mmHg 51%
    22:00 +7°C° 0 mm 3 mps 763 mmHg 52%
    23:00 +7°C° 0 mm 3 mps 763 mmHg 53%

    Day after tomorrow, 18 October, Friday

    Time Temperature Precipitation Wind Pressure Humidity
    00:00 +7°C° 0 mm 3 mps 763 mmHg 54%
    01:00 +7°C° 0 mm 3 mps 762 mmHg 55%
    02:00 +5°C° 0 mm 3 mps 762 mmHg 55%
    03:00 +5°C° 0 mm 3 mps 762 mmHg 56%
    04:00 +5°C° 0 mm 3 mps 761 mmHg 57%
    05:00 +5°C° 0 mm 3 mps 761 mmHg 58%
    06:00 +5°C° 0 mm 3 mps 761 mmHg 59%
    07:00 +6°C° 0 mm 4 mps 760 mmHg 56%
    08:00 +8°C° 0 mm 4 mps 760 mmHg 53%
    09:00 +11°C° 0 mm 4 mps 760 mmHg 50%
    10:00 +12°C° 0 mm 5 mps 759 mmHg 49%
    11:00 +14°C° 0 mm 5 mps 759 mmHg 48%
    12:00 +16°C° 0 mm 5 mps 759 mmHg 47%
    13:00 +16°C° 0 mm 5 mps 758 mmHg 48%
    14:00 +17°C° 0 mm 5 mps 758 mmHg 49%
    15:00 +17°C° 0 mm 5 mps 758 mmHg 49%
    16:00 +16°C° 0 mm 5 mps 758 mmHg 56%
    17:00 +14°C° 0 mm 4 mps 758 mmHg 62%
    18:00 +13°C° 0 mm 3 mps 757 mmHg 68%
    19:00 +13°C° 0 mm 3 mps 758 mmHg 72%
    20:00 +12°C° 0 mm 3 mps 758 mmHg 76%
    21:00 +13°C° 0 mm 2 mps 758 mmHg 80%
    22:00 +12°C° 0 mm 2 mps 758 mmHg 83%
    23:00 +12°C° 0 mm 2 mps 758 mmHg 85%

    19 October, Saturday

    Time Temperature Precipitation Wind Pressure Humidity
    00:00 +12°C° 0 mm 2 mps 758 mmHg 88%
    01:00 +10°C° 0 mm 2 mps 758 mmHg 88%
    02:00 +10°C° 0 mm 2 mps 758 mmHg 88%
    03:00 +9°C° 0 mm 2 mps 759 mmHg 89%
    04:00 +9°C° 0 mm 2 mps 759 mmHg 89%
    05:00 +9°C° 0 mm 2 mps 759 mmHg 89%
    06:00 +9°C° 0 mm 2 mps 759 mmHg 89%
    07:00 +10°C° 0 mm 2 mps 760 mmHg 83%
    08:00 +12°C° 0 mm 2 mps 760 mmHg 78%
    09:00 +11°C° 0 mm 3 mps 760 mmHg 73%
    10:00 +13°C° 0 mm 3 mps 760 mmHg 67%
    11:00 +14°C° 0 mm 3 mps 761 mmHg 61%
    12:00 +15°C° 0 mm 4 mps 761 mmHg 55%
    13:00 +14°C° 0 mm 4 mps 761 mmHg 58%
    14:00 +14°C° 0 mm 4 mps 761 mmHg 62%
    15:00 +14°C° 0 mm 4 mps 761 mmHg 65%
    16:00 +13°C° 0 mm 3 mps 761 mmHg 71%
    17:00 +12°C° 0 mm 3 mps 762 mmHg 77%
    18:00 +12°C° 0 mm 2 mps 762 mmHg 82%
    19:00 +10°C° 0 mm 2 mps 762 mmHg 86%
    20:00 +10°C° 0 mm 2 mps 763 mmHg 89%
    21:00 +9°C° 0 mm 2 mps 763 mmHg 92%
    22:00 +9°C° 0 mm 2 mps 763 mmHg 92%
    23:00 +9°C° 0 mm 2 mps 763 mmHg 93%

    20 October, Sunday

    Time Temperature Precipitation Wind Pressure Humidity
    00:00 +8°C° 0 mm 2 mps 763 mmHg 93%
    01:00 +8°C° 0 mm 2 mps 764 mmHg 92%
    02:00 +8°C° 0 mm 2 mps 764 mmHg 91%
    03:00 +10°C° 0 mm 1 mps 764 mmHg 90%
    04:00 +8°C° 0 mm 2 mps 764 mmHg 90%
    05:00 +8°C° 0 mm 2 mps 765 mmHg 90%
    06:00 +8°C° 0 mm 2 mps 765 mmHg 90%
    07:00 +8°C° 0 mm 2 mps 765 mmHg 86%
    08:00 +9°C° 0 mm 2 mps 765 mmHg 81%
    09:00 +10°C° 0 mm 2 mps 766 mmHg 77%
    10:00 +12°C° 0 mm 2 mps 766 mmHg 72%
    11:00 +13°C° 0 mm 2 mps 766 mmHg 68%
    12:00 +14°C° 0 mm 2 mps 766 mmHg 63%
    13:00 +14°C° 0 mm 2 mps 766 mmHg 62%
    14:00 +14°C° 0 mm 2 mps 766 mmHg 60%
    15:00 +14°C° 0 mm 1 mps 766 mmHg 59%
    16:00 +14°C° 0 mm 1 mps 766 mmHg 62%
    17:00 +13°C° 0 mm 1 mps 766 mmHg 65%
    18:00 +12°C° 0 mm 1 mps 766 mmHg 68%
    19:00 +11°C° 0 mm 1 mps 766 mmHg 71%
    20:00 +11°C° 0 mm 1 mps 766 mmHg 73%
    21:00 +10°C° 0 mm 1 mps 767 mmHg 76%
    22:00 +10°C° 0 mm 1 mps 767 mmHg 77%
    23:00 +9°C° 0 mm 0 mps 767 mmHg 77%

    21 October, Monday

    Time Temperature Precipitation Wind Pressure Humidity
    00:00 +8°C° 0 mm 0 mps 767 mmHg 78%
    01:00 +8°C° 0 mm 0 mps 767 mmHg 79%
    02:00 +8°C° 0 mm 0 mps 767 mmHg 80%
    03:00 +9°C° 0 mm 1 mps 767 mmHg 82%
    04:00 +9°C° 0 mm 1 mps 767 mmHg 83%
    05:00 +8°C° 0 mm 1 mps 767 mmHg 84%
    06:00 +8°C° 0 mm 1 mps 767 mmHg 85%
    07:00 +10°C° 0 mm 1 mps 767 mmHg 80%
    08:00 +11°C° 0 mm 1 mps 767 mmHg 75%
    09:00 +12°C° 0 mm 2 mps 767 mmHg 70%
    10:00 +13°C° 0 mm 2 mps 767 mmHg 66%
    11:00 +15°C° 0 mm 2 mps 767 mmHg 63%
    12:00 +16°C° 0 mm 2 mps 767 mmHg 59%
    13:00 +16°C° 0 mm 2 mps 767 mmHg 59%
    14:00 +17°C° 0 mm 2 mps 766 mmHg 58%
    15:00 +17°C° 0 mm 3 mps 766 mmHg 58%
    16:00 +16°C° 0 mm 2 mps 766 mmHg 63%
    17:00 +14°C° 0 mm 2 mps 766 mmHg 68%
    18:00 +13°C° 0 mm 2 mps 766 mmHg 74%
    19:00 +12°C° 0 mm 3 mps 765 mmHg 75%
    20:00 +11°C° 0 mm 3 mps 765 mmHg 77%
    21:00 +11°C° 0 mm 3 mps 765 mmHg 78%
    22:00 +10°C° 0 mm 3 mps 765 mmHg 79%
    23:00 +10°C° 0 mm 3 mps 764 mmHg 80%
    Show more